Regional Weather Roundup
Issued by NWS Glasgow, MT

Home | Current Version | Previous Version | Text Only | Print | Product List | Glossary On
Versions: 1 2 3 4 5 6 7 8 9 10 11 12 13 14 15 16 17 18 19 20 21 22 23 24 25 26 27 28 29 30 31 32 33 34 35 36 37 38 39 40 41 42 43 44 45 46 47 48 49 50
000
ASUS45 KGGW 062015
RWRGGW
HOURLY REGIONAL WEATHER ROUNDUP FOR NORTHEAST MONTANA
NATIONAL WEATHER SERVICE GLASGOW MONTANA
200 PM MDT MON JUL 06 2015

NOTE: "FAIR" INDICATES FEW OR NO CLOUDS BELOW 12,000 FEET WITH NO
SIGNIFICANT WEATHER AND/OR OBSTRUCTIONS TO VISISBILITY.

NORTHEAST MONTANA


CITY           SKY/WX    TMP DP  RH WIND       PRES   REMARKS
GLASGOW        PTSUNNY   71  43  36 W9G16     30.19S
PLENTYWOOD       N/A     68  45  43 N3          N/A
WOLF POINT     PTSUNNY   74  47  38 VRB7      30.19S HAZE
JORDAN           N/A     71  46  40 CALM      30.20F
WINNETT          N/A     69  46  43 NE3         N/A
SIDNEY         MOSUNNY   70  46  43 N3        30.19S
GLENDIVE       PTSUNNY   70  46  43 NW7       30.20S
MALTA            N/A     75  46  35 W3          N/A
SCOBEY           N/A     69  44  40 N7        30.17F

FORT PECK REPORTS


CITY           SKY/WX    TMP DP  RH WIND       PRES   REMARKS
FORT PECK        N/A     69  51  52 S8          N/A
THE PINES        N/A     69  46  43 E3          N/A

SOUTHEAST MONTANA


CITY           SKY/WX    TMP DP  RH WIND       PRES   REMARKS
BILLINGS       MOSUNNY   67  48  50 NE6       30.23F
MILES CITY     CLOUDY    70  49  47 W6        30.20F
BAKER          PTSUNNY   70  49  47 W12       30.22S
LIVINGSTON     MOSUNNY   69  50  50 VRB7      30.21F

CENTRAL MONTANA


CITY           SKY/WX    TMP DP  RH WIND       PRES   REMARKS
HAVRE          SUNNY     69  43  38 SW6       30.17F
LEWISTOWN      SUNNY     71  47  42 VRB6      30.21F
GREAT FALLS    MOSUNNY   69  49  48 VRB5      30.17F
CUT BANK       SUNNY     68  46  45 S8        30.17F
HELENA         SUNNY     69  50  50 VRB6      30.16F
BUTTE          MOSUNNY   76  46  34 NE8       30.18F
BOZEMAN        SUNNY     73  49  42 VRB3      30.19F

WESTERN MONTANA


CITY           SKY/WX    TMP DP  RH WIND       PRES   REMARKS
MISSOULA       SUNNY     79  46  31 NW10      30.11F
KALISPELL      NOT AVBL

NORTH DAKOTA


CITY           SKY/WX    TMP DP  RH WIND       PRES   REMARKS
WILLISTON      PTSUNNY   68  49  50 N10       30.20S HAZE
DICKINSON      PTSUNNY   70  50  49 NW12      30.17S
MINOT          MOSUNNY   65  47  52 N9        30.17S
BISMARCK       PTSUNNY   70  51  51 N13       30.15S HAZE

SOUTHERN SASKATCHEWAN


CITY           SKY/WX    TMP DP  RH WIND       PRES   REMARKS
REGINA         MOSUNNY   66  41  39 NE3       30.19F
MOOSE JAW      MOSUNNY   66  43  42 N2        30.19F
ESTEVAN        MOSUNNY   66  39  37 VRB5      30.19F
SWIFT CURRENT  PTSUNNY   66  45  45 S3        30.17F



USA.gov is the U.S. government's official web portal to all federal, state and local government web resources and services.